Year,Month,Day,Hour,Minute,Value (Times are PST for temperature in C)
2011,02,28,00,00,2.60
2011,02,28,00,01,2.60
2011,02,28,00,02,2.60
2011,02,28,00,03,2.60
2011,02,28,00,04,2.60
2011,02,28,00,05,2.60
2011,02,28,00,06,2.60
2011,02,28,00,07,2.50
2011,02,28,00,08,2.50
2011,02,28,00,09,2.50
2011,02,28,00,10,2.50
2011,02,28,00,11,2.50
2011,02,28,00,12,2.50
2011,02,28,00,13,2.50
2011,02,28,00,14,2.50
2011,02,28,00,15,2.50
2011,02,28,00,16,2.50
2011,02,28,00,17,2.50
2011,02,28,00,18,2.40
2011,02,28,00,19,2.40
2011,02,28,00,20,2.40
2011,02,28,00,21,2.50
2011,02,28,00,22,2.50
2011,02,28,00,23,2.50
2011,02,28,00,24,2.50
2011,02,28,00,25,2.50
2011,02,28,00,26,2.50
2011,02,28,00,27,2.50
2011,02,28,00,28,2.50
2011,02,28,00,29,2.50
2011,02,28,00,30,2.50
2011,02,28,00,31,2.50
2011,02,28,00,32,2.50
2011,02,28,00,33,2.50
2011,02,28,00,34,2.50
2011,02,28,00,35,2.50
2011,02,28,00,36,2.50
2011,02,28,00,37,2.50
2011,02,28,00,38,2.50
2011,02,28,00,39,2.50
2011,02,28,00,40,2.50
2011,02,28,00,41,2.50
2011,02,28,00,42,2.50
2011,02,28,00,43,2.50
2011,02,28,00,44,2.50
2011,02,28,00,45,2.50
2011,02,28,00,46,2.50
2011,02,28,00,47,2.50
2011,02,28,00,48,2.50
2011,02,28,00,49,2.50
2011,02,28,00,50,2.50
2011,02,28,00,51,2.50
2011,02,28,00,52,2.60
2011,02,28,00,53,2.60
2011,02,28,00,54,2.60
2011,02,28,00,55,2.60
2011,02,28,00,56,2.60
2011,02,28,00,57,2.60
2011,02,28,00,58,2.60
2011,02,28,00,59,2.60
2011,02,28,01,00,2.70
2011,02,28,01,01,2.70
2011,02,28,01,02,2.70
2011,02,28,01,03,2.70
2011,02,28,01,04,2.70
2011,02,28,01,05,2.70
2011,02,28,01,06,2.70
2011,02,28,01,07,2.80
2011,02,28,01,08,2.80
2011,02,28,01,09,2.80
2011,02,28,01,10,2.80
2011,02,28,01,11,2.80
2011,02,28,01,12,2.80
2011,02,28,01,13,2.80
2011,02,28,01,14,2.90
2011,02,28,01,15,2.80
2011,02,28,01,16,2.80
2011,02,28,01,17,2.80
2011,02,28,01,18,2.80
2011,02,28,01,19,2.80
2011,02,28,01,20,2.80
2011,02,28,01,21,2.90
2011,02,28,01,22,2.90
2011,02,28,01,23,2.90
2011,02,28,01,24,2.90
2011,02,28,01,25,2.90
2011,02,28,01,26,2.90
2011,02,28,01,27,2.90
2011,02,28,01,28,2.90
2011,02,28,01,29,2.90
2011,02,28,01,30,2.90
2011,02,28,01,31,2.90
2011,02,28,01,32,2.90
2011,02,28,01,33,2.90
2011,02,28,01,34,2.80
2011,02,28,01,35,2.80
2011,02,28,01,36,2.80
2011,02,28,01,37,2.80
2011,02,28,01,38,2.80
2011,02,28,01,39,2.80
2011,02,28,01,40,2.80
2011,02,28,01,41,2.80
2011,02,28,01,42,2.80
2011,02,28,01,43,2.80
2011,02,28,01,44,2.80
2011,02,28,01,45,2.80
2011,02,28,01,46,2.80
2011,02,28,01,47,2.80
2011,02,28,01,48,2.80
2011,02,28,01,49,2.80
2011,02,28,01,50,2.80
2011,02,28,01,51,2.80
2011,02,28,01,52,2.80
2011,02,28,01,53,2.80
2011,02,28,01,54,2.80
2011,02,28,01,55,2.90
2011,02,28,01,56,2.90
2011,02,28,01,57,2.90
2011,02,28,01,58,2.90
2011,02,28,01,59,2.90
2011,02,28,02,00,2.90
2011,02,28,02,01,2.90
2011,02,28,02,02,2.90
2011,02,28,02,03,2.90
2011,02,28,02,04,2.90
2011,02,28,02,05,2.90
2011,02,28,02,06,2.90
2011,02,28,02,07,2.90
2011,02,28,02,08,2.90
2011,02,28,02,09,2.90
2011,02,28,02,10,2.90
2011,02,28,02,11,2.80
2011,02,28,02,12,2.80
2011,02,28,02,13,2.80
2011,02,28,02,14,2.80
2011,02,28,02,15,2.80
2011,02,28,02,16,2.80
2011,02,28,02,17,2.80
2011,02,28,02,18,2.70
2011,02,28,02,19,2.70
2011,02,28,02,20,2.60
2011,02,28,02,21,2.50
2011,02,28,02,22,2.50
2011,02,28,02,23,2.40
2011,02,28,02,24,2.30
2011,02,28,02,25,2.20
2011,02,28,02,26,2.10
2011,02,28,02,27,2.00
2011,02,28,02,28,1.90
2011,02,28,02,29,1.90
2011,02,28,02,30,1.80
2011,02,28,02,31,1.80
2011,02,28,02,32,1.80
2011,02,28,02,33,1.80
2011,02,28,02,34,1.80
2011,02,28,02,35,1.80
2011,02,28,02,36,1.70
2011,02,28,02,37,1.70
2011,02,28,02,38,1.70
2011,02,28,02,39,1.60
2011,02,28,02,40,1.60
2011,02,28,02,41,1.60
2011,02,28,02,42,1.50
2011,02,28,02,43,1.50
2011,02,28,02,44,1.50
2011,02,28,02,45,1.50
2011,02,28,02,46,1.50
2011,02,28,02,47,1.50
2011,02,28,02,48,1.50
2011,02,28,02,49,1.50
2011,02,28,02,50,1.40
2011,02,28,02,51,1.40
2011,02,28,02,52,1.40
2011,02,28,02,53,1.40
2011,02,28,02,54,1.40
2011,02,28,02,55,1.40
2011,02,28,02,56,1.30
2011,02,28,02,57,1.30
2011,02,28,02,58,1.30
2011,02,28,02,59,1.30
2011,02,28,03,00,1.30
2011,02,28,03,01,1.30
2011,02,28,03,02,1.30
2011,02,28,03,03,1.30
2011,02,28,03,04,1.30
2011,02,28,03,05,1.30
2011,02,28,03,06,1.20
2011,02,28,03,07,1.20
2011,02,28,03,08,1.20
2011,02,28,03,09,1.20
2011,02,28,03,10,1.20
2011,02,28,03,11,1.20
2011,02,28,03,12,1.20
2011,02,28,03,13,1.20
2011,02,28,03,14,1.10
2011,02,28,03,15,1.10
2011,02,28,03,16,1.10
2011,02,28,03,17,1.10
2011,02,28,03,18,1.10
2011,02,28,03,19,1.10
2011,02,28,03,20,1.00
2011,02,28,03,21,1.00
2011,02,28,03,22,1.00
2011,02,28,03,23,1.00
2011,02,28,03,24,1.00
2011,02,28,03,25,0.90
2011,02,28,03,26,0.90
2011,02,28,03,27,0.90
2011,02,28,03,28,0.80
2011,02,28,03,29,0.80
2011,02,28,03,30,0.80
2011,02,28,03,31,0.80
2011,02,28,03,32,0.70
2011,02,28,03,33,0.70
2011,02,28,03,34,0.60
2011,02,28,03,35,0.60
2011,02,28,03,36,0.60
2011,02,28,03,37,0.60
2011,02,28,03,38,0.50
2011,02,28,03,39,0.50
2011,02,28,03,40,0.50
2011,02,28,03,41,0.40
2011,02,28,03,42,0.40
2011,02,28,03,43,0.40
2011,02,28,03,44,0.40
2011,02,28,03,45,0.40
2011,02,28,03,46,0.40
2011,02,28,03,47,0.40
2011,02,28,03,48,0.40
2011,02,28,03,49,0.40
2011,02,28,03,50,0.40
2011,02,28,03,51,0.40
2011,02,28,03,52,0.40
2011,02,28,03,53,0.40
2011,02,28,03,54,0.40
2011,02,28,03,55,0.40
2011,02,28,03,56,0.40
2011,02,28,03,57,0.40
2011,02,28,03,58,0.50
2011,02,28,03,59,0.50
2011,02,28,04,00,0.50
2011,02,28,04,01,0.50
2011,02,28,04,02,0.50
2011,02,28,04,03,0.50
2011,02,28,04,04,0.50
2011,02,28,04,05,0.50
2011,02,28,04,06,0.50
2011,02,28,04,07,0.50
2011,02,28,04,08,0.50
2011,02,28,04,09,0.50
2011,02,28,04,10,0.50
2011,02,28,04,11,0.50
2011,02,28,04,12,0.50
2011,02,28,04,13,0.50
2011,02,28,04,14,0.50
2011,02,28,04,15,0.50
2011,02,28,04,16,0.50
2011,02,28,04,17,0.50
2011,02,28,04,18,0.50
2011,02,28,04,19,0.40
2011,02,28,04,20,0.40
2011,02,28,04,21,0.40
2011,02,28,04,22,0.40
2011,02,28,04,23,0.40
2011,02,28,04,24,0.40
2011,02,28,04,25,0.40
2011,02,28,04,26,0.40
2011,02,28,04,27,0.40
2011,02,28,04,28,0.40
2011,02,28,04,29,0.40
2011,02,28,04,30,0.40
2011,02,28,04,31,0.40
2011,02,28,04,32,0.40
2011,02,28,04,33,0.40
2011,02,28,04,34,0.40
2011,02,28,04,35,0.40
2011,02,28,04,36,0.40
2011,02,28,04,37,0.40
2011,02,28,04,38,0.40
2011,02,28,04,39,0.40
2011,02,28,04,40,0.40
2011,02,28,04,41,0.40
2011,02,28,04,42,0.40
2011,02,28,04,43,0.40
2011,02,28,04,44,0.40
2011,02,28,04,45,0.40
2011,02,28,04,46,0.40
2011,02,28,04,47,0.40
2011,02,28,04,48,0.50
2011,02,28,04,49,0.50
2011,02,28,04,50,0.50
2011,02,28,04,51,0.50
2011,02,28,04,52,0.50
2011,02,28,04,53,0.50
2011,02,28,04,54,0.50
2011,02,28,04,55,0.50
2011,02,28,04,56,0.50
2011,02,28,04,57,0.50
2011,02,28,04,58,0.50
2011,02,28,04,59,0.50
2011,02,28,05,00,0.60
2011,02,28,05,01,0.60
2011,02,28,05,02,0.60
2011,02,28,05,03,0.60
2011,02,28,05,04,0.60
2011,02,28,05,05,0.60
2011,02,28,05,06,0.60
2011,02,28,05,07,0.60
2011,02,28,05,08,0.60
2011,02,28,05,09,0.60
2011,02,28,05,10,0.60
2011,02,28,05,11,0.60
2011,02,28,05,12,0.60
2011,02,28,05,13,0.60
2011,02,28,05,14,0.60
2011,02,28,05,15,0.60
2011,02,28,05,16,0.60
2011,02,28,05,17,0.60
2011,02,28,05,18,0.60
2011,02,28,05,19,0.60
2011,02,28,05,20,0.60
2011,02,28,05,21,0.60
2011,02,28,05,22,0.60
2011,02,28,05,23,0.60
2011,02,28,05,24,0.60
2011,02,28,05,25,0.60
2011,02,28,05,26,0.60
2011,02,28,05,27,0.60
2011,02,28,05,28,0.60
2011,02,28,05,29,0.60
2011,02,28,05,30,0.50
2011,02,28,05,31,0.50
2011,02,28,05,32,0.50
2011,02,28,05,33,0.50
2011,02,28,05,34,0.50
2011,02,28,05,35,0.40
2011,02,28,05,36,0.40
2011,02,28,05,37,0.40
2011,02,28,05,38,0.40
2011,02,28,05,39,0.40
2011,02,28,05,40,0.40
2011,02,28,05,41,0.40
2011,02,28,05,42,0.40
2011,02,28,05,43,0.40
2011,02,28,05,44,0.30
2011,02,28,05,45,0.30
2011,02,28,05,46,0.30
2011,02,28,05,47,0.30
2011,02,28,05,48,0.30
2011,02,28,05,49,0.30
2011,02,28,05,50,0.20
2011,02,28,05,51,0.20
2011,02,28,05,52,0.20
2011,02,28,05,53,0.20
2011,02,28,05,54,0.20
2011,02,28,05,55,0.20
2011,02,28,05,56,0.20
2011,02,28,05,57,0.20
2011,02,28,05,58,0.20
2011,02,28,05,59,0.20
2011,02,28,06,00,0.20
2011,02,28,06,01,0.20
2011,02,28,06,02,0.20
2011,02,28,06,03,0.20
2011,02,28,06,04,0.20
2011,02,28,06,05,0.20
2011,02,28,06,06,0.20
2011,02,28,06,07,0.20
2011,02,28,06,08,0.20
2011,02,28,06,09,0.30
2011,02,28,06,10,0.30
2011,02,28,06,11,0.30
2011,02,28,06,12,0.30
2011,02,28,06,13,0.40
2011,02,28,06,14,0.40
2011,02,28,06,15,0.40
2011,02,28,06,16,0.40
2011,02,28,06,17,0.40
2011,02,28,06,18,0.40
2011,02,28,06,19,0.40
2011,02,28,06,20,0.40
2011,02,28,06,21,0.40
2011,02,28,06,22,0.40
2011,02,28,06,23,0.40
2011,02,28,06,24,0.40
2011,02,28,06,25,0.40
2011,02,28,06,26,0.40
2011,02,28,06,27,0.40
2011,02,28,06,28,0.40
2011,02,28,06,29,0.40
2011,02,28,06,30,0.40
2011,02,28,06,31,0.40
2011,02,28,06,32,0.40
2011,02,28,06,33,0.40
2011,02,28,06,34,0.40
2011,02,28,06,35,0.40
2011,02,28,06,36,0.40
2011,02,28,06,37,0.30
2011,02,28,06,38,0.30
2011,02,28,06,39,0.30
2011,02,28,06,40,0.30
2011,02,28,06,41,0.30
2011,02,28,06,42,0.40
2011,02,28,06,43,0.40
2011,02,28,06,44,0.40
2011,02,28,06,45,0.40
2011,02,28,06,46,0.40
2011,02,28,06,47,0.40
2011,02,28,06,48,0.40
2011,02,28,06,49,0.40
2011,02,28,06,50,0.40
2011,02,28,06,51,0.40
2011,02,28,06,52,0.40
2011,02,28,06,53,0.40
2011,02,28,06,54,0.40
2011,02,28,06,55,0.40
2011,02,28,06,56,0.40
2011,02,28,06,57,0.40
2011,02,28,06,58,0.40
2011,02,28,06,59,0.40
2011,02,28,07,00,0.40
2011,02,28,07,01,0.40
2011,02,28,07,02,0.40
2011,02,28,07,03,0.40
2011,02,28,07,04,0.40
2011,02,28,07,05,0.40
2011,02,28,07,06,0.40
2011,02,28,07,07,0.50
2011,02,28,07,08,0.50
2011,02,28,07,09,0.50
2011,02,28,07,10,0.50
2011,02,28,07,11,0.50
2011,02,28,07,12,0.50
2011,02,28,07,13,0.50
2011,02,28,07,14,0.50
2011,02,28,07,15,0.50
2011,02,28,07,16,0.50
2011,02,28,07,17,0.50
2011,02,28,07,18,0.50
2011,02,28,07,19,0.50
2011,02,28,07,20,0.50
2011,02,28,07,21,0.50
2011,02,28,07,22,0.50
2011,02,28,07,23,0.50
2011,02,28,07,24,0.50
2011,02,28,07,25,0.50
2011,02,28,07,26,0.50
2011,02,28,07,27,0.50
2011,02,28,07,28,0.50
2011,02,28,07,29,0.50
2011,02,28,07,30,0.50
2011,02,28,07,31,0.50
2011,02,28,07,32,0.50
2011,02,28,07,33,0.50
2011,02,28,07,34,0.50
2011,02,28,07,35,0.50
2011,02,28,07,36,0.50
2011,02,28,07,37,0.50
2011,02,28,07,38,0.50
2011,02,28,07,39,0.50
2011,02,28,07,40,0.40
2011,02,28,07,41,0.40
2011,02,28,07,42,0.40
2011,02,28,07,43,0.40
2011,02,28,07,44,0.40
2011,02,28,07,45,0.50
2011,02,28,07,46,0.50
2011,02,28,07,47,0.40
2011,02,28,07,48,0.40
2011,02,28,07,49,0.40
2011,02,28,07,50,0.40
2011,02,28,07,51,0.40
2011,02,28,07,52,0.40
2011,02,28,07,53,0.40
2011,02,28,07,54,0.40
2011,02,28,07,55,0.40
2011,02,28,07,56,0.40
2011,02,28,07,57,0.40
2011,02,28,07,58,0.40
2011,02,28,07,59,0.40
2011,02,28,08,00,0.40
2011,02,28,08,01,0.40
2011,02,28,08,02,0.50
2011,02,28,08,03,0.50
2011,02,28,08,04,0.50
2011,02,28,08,05,0.50
2011,02,28,08,06,0.50
2011,02,28,08,07,0.50
2011,02,28,08,08,0.50
2011,02,28,08,09,0.50
2011,02,28,08,10,0.60
2011,02,28,08,11,0.60
2011,02,28,08,12,0.70
2011,02,28,08,13,0.80
2011,02,28,08,14,0.80
2011,02,28,08,15,0.90
2011,02,28,08,16,1.00
2011,02,28,08,17,1.00
2011,02,28,08,18,1.10
2011,02,28,08,19,1.10
2011,02,28,08,20,1.20
2011,02,28,08,21,1.20
2011,02,28,08,22,1.20
2011,02,28,08,23,1.30
2011,02,28,08,24,1.30
2011,02,28,08,25,1.30
2011,02,28,08,26,1.40
2011,02,28,08,27,1.50
2011,02,28,08,28,1.50
2011,02,28,08,29,1.60
2011,02,28,08,30,1.70
2011,02,28,08,31,1.70
2011,02,28,08,32,1.80
2011,02,28,08,33,1.80
2011,02,28,08,34,1.80
2011,02,28,08,35,1.90
2011,02,28,08,36,2.00
2011,02,28,08,37,2.00
2011,02,28,08,38,2.00
2011,02,28,08,39,2.10
2011,02,28,08,40,2.20
2011,02,28,08,41,2.20
2011,02,28,08,42,2.20
2011,02,28,08,43,2.20
2011,02,28,08,44,2.20
2011,02,28,08,45,2.20
2011,02,28,08,46,2.30
2011,02,28,08,47,2.40
2011,02,28,08,48,2.40
2011,02,28,08,49,2.40
2011,02,28,08,50,2.40
2011,02,28,08,51,2.50
2011,02,28,08,52,2.50
2011,02,28,08,53,2.50
2011,02,28,08,54,2.50
2011,02,28,08,55,2.50
2011,02,28,08,56,2.50
2011,02,28,08,57,2.50
2011,02,28,08,58,2.50
2011,02,28,08,59,2.60
2011,02,28,09,00,2.60
2011,02,28,09,01,2.70
2011,02,28,09,02,2.70
2011,02,28,09,03,2.70
2011,02,28,09,04,2.80
2011,02,28,09,05,2.80
2011,02,28,09,06,2.80
2011,02,28,09,07,2.70
2011,02,28,09,08,2.70
2011,02,28,09,09,2.80
2011,02,28,09,10,2.70
2011,02,28,09,11,2.80
2011,02,28,09,12,2.80
2011,02,28,09,13,2.80
2011,02,28,09,14,2.80
2011,02,28,09,15,2.80
2011,02,28,09,16,2.80
2011,02,28,09,17,2.90
2011,02,28,09,18,2.90
2011,02,28,09,19,2.90
2011,02,28,09,20,2.90
2011,02,28,09,21,2.90
2011,02,28,09,22,2.90
2011,02,28,09,23,2.90
2011,02,28,09,24,3.00
2011,02,28,09,25,3.10
2011,02,28,09,26,3.10
2011,02,28,09,27,3.10
2011,02,28,09,28,3.10
2011,02,28,09,29,3.20
2011,02,28,09,30,3.10
2011,02,28,09,31,3.10
2011,02,28,09,32,3.10
2011,02,28,09,33,3.20
2011,02,28,09,34,3.20
2011,02,28,09,35,3.20
2011,02,28,09,37,3.30
2011,02,28,09,38,3.30
2011,02,28,09,39,3.30
2011,02,28,09,40,3.40
2011,02,28,09,41,3.40
2011,02,28,09,42,3.40
2011,02,28,09,43,3.30
2011,02,28,09,44,3.30
2011,02,28,09,45,3.30
2011,02,28,09,46,3.40
2011,02,28,09,47,3.40
2011,02,28,09,48,3.40
2011,02,28,09,49,3.50
2011,02,28,09,50,3.50
2011,02,28,09,51,3.60
2011,02,28,09,52,3.60
2011,02,28,09,53,3.70
2011,02,28,09,54,3.70
2011,02,28,09,55,3.80
2011,02,28,09,56,3.80
2011,02,28,09,57,3.90
2011,02,28,09,58,3.90
2011,02,28,09,59,3.90
2011,02,28,10,00,3.90
2011,02,28,10,01,4.00
2011,02,28,10,02,4.10
2011,02,28,10,03,4.20
2011,02,28,10,04,4.20
2011,02,28,10,05,4.20
2011,02,28,10,06,4.20
2011,02,28,10,07,4.20
2011,02,28,10,08,4.10
2011,02,28,10,09,4.10
2011,02,28,10,10,4.20
2011,02,28,10,11,4.20
2011,02,28,10,12,4.20
2011,02,28,10,13,4.20
2011,02,28,10,14,4.20
2011,02,28,10,15,4.20
2011,02,28,10,16,4.20
2011,02,28,10,17,4.20
2011,02,28,10,18,4.30
2011,02,28,10,19,4.30
2011,02,28,10,20,4.40
2011,02,28,10,21,4.40
2011,02,28,10,22,4.40
2011,02,28,10,23,4.30
2011,02,28,10,24,4.30
2011,02,28,10,25,4.20
2011,02,28,10,26,4.10
2011,02,28,10,27,4.10
2011,02,28,10,28,4.10
2011,02,28,10,29,4.10
2011,02,28,10,30,4.10
2011,02,28,10,31,4.10
2011,02,28,10,32,4.20
2011,02,28,10,33,4.20
2011,02,28,10,34,4.20
2011,02,28,10,35,4.20
2011,02,28,10,36,4.20
2011,02,28,10,37,4.20
2011,02,28,10,38,4.30
2011,02,28,10,39,4.30
2011,02,28,10,40,4.40
2011,02,28,10,41,4.50
2011,02,28,10,42,4.60
2011,02,28,10,43,4.60
2011,02,28,10,44,4.50
2011,02,28,10,45,4.50
2011,02,28,10,46,4.50
2011,02,28,10,47,4.60
2011,02,28,10,48,4.60
2011,02,28,10,49,4.60
2011,02,28,10,50,4.60
2011,02,28,10,51,4.50
2011,02,28,10,52,4.50
2011,02,28,10,53,4.50
2011,02,28,10,54,4.60
2011,02,28,10,55,4.60
2011,02,28,10,56,4.60
2011,02,28,10,57,4.70
2011,02,28,10,58,4.80
2011,02,28,10,59,4.80
2011,02,28,11,00,4.90
2011,02,28,11,01,4.90
2011,02,28,11,02,4.90
2011,02,28,11,03,4.90
2011,02,28,11,04,4.90
2011,02,28,11,05,4.90
2011,02,28,11,06,4.80
2011,02,28,11,07,4.80
2011,02,28,11,08,4.80
2011,02,28,11,09,4.70
2011,02,28,11,10,4.60
2011,02,28,11,11,4.50
2011,02,28,11,12,4.40
2011,02,28,11,13,4.20
2011,02,28,11,14,4.10
2011,02,28,11,15,4.00
2011,02,28,11,16,4.00
2011,02,28,11,17,4.00
2011,02,28,11,18,4.10
2011,02,28,11,19,4.10
2011,02,28,11,20,4.20
2011,02,28,11,21,4.30
2011,02,28,11,22,4.40
2011,02,28,11,23,4.40
2011,02,28,11,24,4.40
2011,02,28,11,25,4.50
2011,02,28,11,26,4.60
2011,02,28,11,27,4.60
2011,02,28,11,28,4.60
2011,02,28,11,29,4.70
2011,02,28,11,30,4.70
2011,02,28,11,31,4.70
2011,02,28,11,32,4.60
2011,02,28,11,33,4.70
2011,02,28,11,34,4.70
2011,02,28,11,35,4.70
2011,02,28,11,36,4.80
2011,02,28,11,37,4.90
2011,02,28,11,38,4.90
2011,02,28,11,39,4.90
2011,02,28,11,40,5.00
2011,02,28,11,41,5.10
2011,02,28,11,42,5.10
2011,02,28,11,43,5.10
2011,02,28,11,44,5.10
2011,02,28,11,45,5.20
2011,02,28,11,46,5.20
2011,02,28,11,47,5.30
2011,02,28,11,48,5.30
2011,02,28,11,49,5.30
2011,02,28,11,50,5.30
2011,02,28,11,51,5.30
2011,02,28,11,52,5.40
2011,02,28,11,53,5.30
2011,02,28,11,54,5.30
2011,02,28,11,55,5.30
2011,02,28,11,56,5.30
2011,02,28,11,57,5.30
2011,02,28,11,58,5.30
2011,02,28,11,59,5.30
2011,02,28,12,00,5.40
2011,02,28,12,01,5.50
2011,02,28,12,02,5.50
2011,02,28,12,03,5.50
2011,02,28,12,04,5.50
2011,02,28,12,05,5.50
2011,02,28,12,06,5.60
2011,02,28,12,07,5.60
2011,02,28,12,08,5.60
2011,02,28,12,09,5.70
2011,02,28,12,10,5.70
2011,02,28,12,11,5.70
2011,02,28,12,12,5.60
2011,02,28,12,13,5.60
2011,02,28,12,14,5.50
2011,02,28,12,15,5.60
2011,02,28,12,16,5.60
2011,02,28,12,17,5.70
2011,02,28,12,18,5.70
2011,02,28,12,19,5.70
2011,02,28,12,20,5.70
2011,02,28,12,21,5.60
2011,02,28,12,22,5.60
2011,02,28,12,23,5.50
2011,02,28,12,24,5.40
2011,02,28,12,25,5.40
2011,02,28,12,26,5.40
2011,02,28,12,27,5.40
2011,02,28,12,28,5.40
2011,02,28,12,29,5.40
2011,02,28,12,30,5.40
2011,02,28,12,31,5.40
2011,02,28,12,32,5.50
2011,02,28,12,33,5.50
2011,02,28,12,34,5.60
2011,02,28,12,35,5.50
2011,02,28,12,36,5.50
2011,02,28,12,37,5.50
2011,02,28,12,38,5.50
2011,02,28,12,39,5.50
2011,02,28,12,40,5.50
2011,02,28,12,41,5.50
2011,02,28,12,42,5.60
2011,02,28,12,43,5.60
2011,02,28,12,44,5.70
2011,02,28,12,45,5.70
2011,02,28,12,46,5.80
2011,02,28,12,47,5.90
2011,02,28,12,48,5.90
2011,02,28,12,49,6.00
2011,02,28,12,50,6.10
2011,02,28,12,51,6.00
2011,02,28,12,52,6.10
2011,02,28,12,53,6.10
2011,02,28,12,54,6.10
2011,02,28,12,55,6.20
2011,02,28,12,56,6.20
2011,02,28,12,57,6.20
2011,02,28,12,58,6.20
2011,02,28,12,59,6.20
2011,02,28,13,00,6.10
2011,02,28,13,01,6.10
2011,02,28,13,02,6.00
2011,02,28,13,03,6.00
2011,02,28,13,04,6.10
2011,02,28,13,05,6.20
2011,02,28,13,06,6.20
2011,02,28,13,07,6.30
2011,02,28,13,08,6.30
2011,02,28,13,09,6.30
2011,02,28,13,10,6.40
2011,02,28,13,11,6.40
2011,02,28,13,12,6.40
2011,02,28,13,13,6.40
2011,02,28,13,14,6.40
2011,02,28,13,15,6.30
2011,02,28,13,16,6.30
2011,02,28,13,17,6.30
2011,02,28,13,18,6.20
2011,02,28,13,19,6.20
2011,02,28,13,20,6.30
2011,02,28,13,21,6.30
2011,02,28,13,22,6.30
2011,02,28,13,23,6.20
2011,02,28,13,24,6.10
2011,02,28,13,25,6.00
2011,02,28,13,26,5.90
2011,02,28,13,27,5.90
2011,02,28,13,28,5.90
2011,02,28,13,29,5.90
2011,02,28,13,30,5.80
2011,02,28,13,31,5.80
2011,02,28,13,32,5.80
2011,02,28,13,33,5.90
2011,02,28,13,34,5.90
2011,02,28,13,35,5.90
2011,02,28,13,36,5.90
2011,02,28,13,37,5.90
2011,02,28,13,38,5.80
2011,02,28,13,39,5.70
2011,02,28,13,40,5.70
2011,02,28,13,41,5.70
2011,02,28,13,42,5.70
2011,02,28,13,43,5.70
2011,02,28,13,44,5.70
2011,02,28,13,45,5.70
2011,02,28,13,46,5.70
2011,02,28,13,47,5.70
2011,02,28,13,48,5.70
2011,02,28,13,49,5.70
2011,02,28,13,50,5.70
2011,02,28,13,51,5.70
2011,02,28,13,52,5.70
2011,02,28,13,53,5.70
2011,02,28,13,54,5.80
2011,02,28,13,55,5.90
2011,02,28,13,56,5.90
2011,02,28,13,57,5.90
2011,02,28,13,58,5.80
2011,02,28,13,59,5.70
2011,02,28,14,00,5.70
2011,02,28,14,01,5.70
2011,02,28,14,02,5.70
2011,02,28,14,03,5.70
2011,02,28,14,04,5.70
2011,02,28,14,05,5.60
2011,02,28,14,06,5.60
2011,02,28,14,07,5.60
2011,02,28,14,08,5.60
2011,02,28,14,09,5.60
2011,02,28,14,10,5.60
2011,02,28,14,11,5.60
2011,02,28,14,12,5.50
2011,02,28,14,13,5.50
2011,02,28,14,14,5.40
2011,02,28,14,15,5.30
2011,02,28,14,16,5.30
2011,02,28,14,17,5.30
2011,02,28,14,18,5.40
2011,02,28,14,19,5.40
2011,02,28,14,20,5.40
2011,02,28,14,21,5.50
2011,02,28,14,22,5.50
2011,02,28,14,23,5.50
2011,02,28,14,24,5.60
2011,02,28,14,25,5.70
2011,02,28,14,26,5.70
2011,02,28,14,27,5.70
2011,02,28,14,28,5.70
2011,02,28,14,29,5.70
2011,02,28,14,30,5.70
2011,02,28,14,31,5.70
2011,02,28,14,32,5.70
2011,02,28,14,33,5.70
2011,02,28,14,34,5.80
2011,02,28,14,35,5.90
2011,02,28,14,36,5.90
2011,02,28,14,37,5.90
2011,02,28,14,38,5.90
2011,02,28,14,39,5.80
2011,02,28,14,40,5.70
2011,02,28,14,41,5.70
2011,02,28,14,42,5.80
2011,02,28,14,43,5.70
2011,02,28,14,44,5.70
2011,02,28,14,45,5.70
2011,02,28,14,46,5.70
2011,02,28,14,47,5.70
2011,02,28,14,48,5.70
2011,02,28,14,49,5.70
2011,02,28,14,50,5.70
2011,02,28,14,51,5.60
2011,02,28,14,52,5.50
2011,02,28,14,53,5.50
2011,02,28,14,54,5.60
2011,02,28,14,55,5.60
2011,02,28,14,56,5.50
2011,02,28,14,57,5.50
2011,02,28,14,58,5.40
2011,02,28,14,59,5.40
2011,02,28,15,00,5.30
2011,02,28,15,01,5.30
2011,02,28,15,02,5.30
2011,02,28,15,03,5.30
2011,02,28,15,04,5.30
2011,02,28,15,05,5.30
2011,02,28,15,06,5.20
2011,02,28,15,07,5.20
2011,02,28,15,08,5.10
2011,02,28,15,09,5.10
2011,02,28,15,10,5.00
2011,02,28,15,11,4.90
2011,02,28,15,12,4.90
2011,02,28,15,13,4.90
2011,02,28,15,14,4.90
2011,02,28,15,15,4.90
2011,02,28,15,16,4.90
2011,02,28,15,17,4.90
2011,02,28,15,18,4.90
2011,02,28,15,19,4.90
2011,02,28,15,20,4.90
2011,02,28,15,21,4.90
2011,02,28,15,22,4.90
2011,02,28,15,23,5.10
2011,02,28,15,24,5.10
2011,02,28,15,25,5.10
2011,02,28,15,26,5.00
2011,02,28,15,27,4.90
2011,02,28,15,28,4.90
2011,02,28,15,29,5.00
2011,02,28,15,30,5.10
2011,02,28,15,31,5.10
2011,02,28,15,32,5.10
2011,02,28,15,33,5.10
2011,02,28,15,34,5.00
2011,02,28,15,35,5.00
2011,02,28,15,36,5.10
2011,02,28,15,37,5.00
2011,02,28,15,38,4.90
2011,02,28,15,39,5.00
2011,02,28,15,40,5.10
2011,02,28,15,41,5.00
2011,02,28,15,42,4.90
2011,02,28,15,43,4.90
2011,02,28,15,44,4.90
2011,02,28,15,45,4.90
2011,02,28,15,46,4.90
2011,02,28,15,47,4.90
2011,02,28,15,48,4.90
2011,02,28,15,49,4.90
2011,02,28,15,50,4.90
2011,02,28,15,51,4.90
2011,02,28,15,52,4.90
2011,02,28,15,53,4.90
2011,02,28,15,54,4.90
2011,02,28,15,55,4.90
2011,02,28,15,56,4.80
2011,02,28,15,57,4.80
2011,02,28,15,58,4.90
2011,02,28,15,59,4.90
2011,02,28,16,00,4.90
2011,02,28,16,01,4.90
2011,02,28,16,02,4.90
2011,02,28,16,03,5.00
2011,02,28,16,04,5.10
2011,02,28,16,05,5.10
2011,02,28,16,06,5.10
2011,02,28,16,07,5.10
2011,02,28,16,08,5.10
2011,02,28,16,09,5.10
2011,02,28,16,10,5.10
2011,02,28,16,11,5.10
2011,02,28,16,12,5.10
2011,02,28,16,13,5.10
2011,02,28,16,14,5.10
2011,02,28,16,15,5.10
2011,02,28,16,16,5.10
2011,02,28,16,17,5.10
2011,02,28,16,18,5.10
2011,02,28,16,19,5.10
2011,02,28,16,20,5.10
2011,02,28,16,21,5.10
2011,02,28,16,22,5.10
2011,02,28,16,23,5.00
2011,02,28,16,24,4.90
2011,02,28,16,25,4.90
2011,02,28,16,26,4.90
2011,02,28,16,27,4.90
2011,02,28,16,28,4.90
2011,02,28,16,29,4.90
2011,02,28,16,30,4.90
2011,02,28,16,31,4.90
2011,02,28,16,32,4.80
2011,02,28,16,33,4.80
2011,02,28,16,34,4.80
2011,02,28,16,35,4.70
2011,02,28,16,36,4.70
2011,02,28,16,37,4.70
2011,02,28,16,38,4.60
2011,02,28,16,39,4.60
2011,02,28,16,40,4.60
2011,02,28,16,41,4.60
2011,02,28,16,42,4.60
2011,02,28,16,43,4.60
2011,02,28,16,44,4.60
2011,02,28,16,45,4.60
2011,02,28,16,46,4.60
2011,02,28,16,47,4.60
2011,02,28,16,48,4.60
2011,02,28,16,49,4.60
2011,02,28,16,50,4.60
2011,02,28,16,51,4.60
2011,02,28,16,52,4.60
2011,02,28,16,53,4.60
2011,02,28,16,54,4.60
2011,02,28,16,55,4.60
2011,02,28,16,56,4.60
2011,02,28,16,57,4.60
2011,02,28,16,58,4.60
2011,02,28,16,59,4.60
2011,02,28,17,00,4.60
2011,02,28,17,01,4.60
2011,02,28,17,02,4.60
2011,02,28,17,03,4.60
2011,02,28,17,04,4.60
2011,02,28,17,05,4.60
2011,02,28,17,06,4.60
2011,02,28,17,07,4.60
2011,02,28,17,08,4.50
2011,02,28,17,09,4.50
2011,02,28,17,10,4.50
2011,02,28,17,11,4.50
2011,02,28,17,12,4.50
2011,02,28,17,13,4.50
2011,02,28,17,14,4.50
2011,02,28,17,15,4.50
2011,02,28,17,16,4.50
2011,02,28,17,17,4.50
2011,02,28,17,18,4.50
2011,02,28,17,19,4.50
2011,02,28,17,20,4.50
2011,02,28,17,21,4.50
2011,02,28,17,22,4.50
2011,02,28,17,23,4.50
2011,02,28,17,24,4.50
2011,02,28,17,25,4.50
2011,02,28,17,26,4.50
2011,02,28,17,27,4.50
2011,02,28,17,28,4.40
2011,02,28,17,29,4.40
2011,02,28,17,30,4.40
2011,02,28,17,31,4.40
2011,02,28,17,32,4.40
2011,02,28,17,33,4.40
2011,02,28,17,34,4.30
2011,02,28,17,35,4.30
2011,02,28,17,36,4.30
2011,02,28,17,37,4.30
2011,02,28,17,38,4.20
2011,02,28,17,39,4.20
2011,02,28,17,40,4.20
2011,02,28,17,41,4.20
2011,02,28,17,42,4.10
2011,02,28,17,43,4.00
2011,02,28,17,44,4.00
2011,02,28,17,45,3.90
2011,02,28,17,46,3.80
2011,02,28,17,47,3.80
2011,02,28,17,48,3.80
2011,02,28,17,49,3.80
2011,02,28,17,50,3.70
2011,02,28,17,51,3.70
2011,02,28,17,52,3.60
2011,02,28,17,53,3.60
2011,02,28,17,54,3.60
2011,02,28,17,55,3.50
2011,02,28,17,56,3.50
2011,02,28,17,57,3.50
2011,02,28,17,58,3.50
2011,02,28,17,59,3.40
2011,02,28,18,00,3.40
2011,02,28,18,01,3.40
2011,02,28,18,02,3.30
2011,02,28,18,03,3.30
2011,02,28,18,04,3.30
2011,02,28,18,05,3.30
2011,02,28,18,06,3.20
2011,02,28,18,07,3.20